Location: Bulan
(43.0403°N, 0.2777°E)
Time: 16:04:03
(UTC+00:00)

Daily predictions for brighter satellites

Satellite Brightness Start Highest point End
(mag) Time Altitude Azimuth Time Altitude Azimuth Time Altitude Azimuth
NOSS 3-4 (A) 4.2 19:58:30 10° NW 20:05:31 71° WSW 20:13:36 10° SSE
NOSS 3-4 (C) 4.2 19:58:32 10° NW 20:05:35 72° WSW 20:13:37 10° SSE
Cosmos 1633 Rocket 3.1 20:06:42 10° N 20:11:06 80° E 20:15:28 10° S
Cosmos 1190 Rocket 4.4 20:06:25 10° S 20:11:24 44° ESE 20:16:25 10° NNE
CZ-4B R/B 3.9 20:07:45 10° S 20:12:53 54° W 20:18:07 10° NNW
Okean O Rocket 1.9 20:10:36 10° S 20:14:58 71° WSW 20:19:23 10° NNW
SeaSat 1 3.3 20:12:57 10° ESE 20:17:29 39° NE 20:22:02 10° NNW
EXPRESS MD2 2.5 20:14:53 10° SW 20:18:33 60° SSE 20:20:58 10° ENE
Cosmos 1766 3.2 20:14:51 10° N 20:18:36 66° E 20:22:19 10° SSE
CARTOSAT-1 4.4 20:14:58 10° S 20:19:07 51° W 20:23:17 10° NNW
SL-24 R/B 4.4 20:15:28 10° S 20:20:32 83° WSW 20:24:57 10° NNW
CZ-4 R/B 3.8 20:19:05 10° SW 20:22:05 21° W 20:25:09 10° NW
Cosmos 2026 Rocket 4.1 20:16:21 10° S 20:22:32 87° W 20:28:41 10° N
Cosmos 1066 Rocket 4.3 20:17:07 10° S 20:22:57 82° E 20:28:46 10° NNE
Cosmos 1470 Rocket 3.6 20:18:45 10° N 20:23:05 66° E 20:27:23 10° SSE
OPS 6432 4.5 20:21:04 10° NW 20:24:07 65° WSW 20:27:25 10° SSE
USA 234 3.2 20:18:06 10° NE 20:24:38 70° SE 20:31:08 10° SW
IRIDIUM 104 4.4 20:22:40 10° N 20:27:54 70° E 20:33:05 10° S
Cosmos 1666 Rocket 4.4 20:26:17 10° NNW 20:30:29 50° W 20:34:41 10° SSW
Cosmos 2360 Rocket 4.3 20:27:37 10° N 20:30:52 15° NE 20:34:06 10° E
Cosmos 2285 Rocket 4.3 20:26:31 10° SSW 20:32:51 77° WNW 20:39:16 10° NNE
Cosmos 2333 Rocket 4.3 20:32:15 10° N 20:35:37 16° NE 20:39:00 10° E
Atlas Centaur 2 3.8 20:29:20 10° SW 20:36:22 32° S 20:43:26 10° ESE
IRIDIUM 114 4.3 20:31:48 10° N 20:37:03 85° E 20:42:16 10° S
ERS-1 Rocket 3.4 20:33:11 10° SE 20:37:55 47° ENE 20:42:43 10° N
SL-16 R/B 3.4 20:34:09 10° N 20:39:08 30° NE 20:43:56 11° ESE
Cosmos 1441 Rocket 4.1 20:36:03 10° N 20:39:17 31° ENE 20:41:54 14° SE
Resurs 01 Rocket 3.4 20:35:52 10° SSW 20:39:44 30° W 20:43:38 10° NW
Cosmos 1763 Rocket 3.5 20:35:34 10° NNW 20:40:51 76° ENE 20:45:43 12° SSE
Cosmos 2369 3.8 20:35:14 10° NNW 20:41:00 90° NNE 20:46:32 11° SSE
Lacrosse 5 rocket 3.8 20:39:13 10° W 20:41:29 14° WSW 20:43:41 10° SSW
Cosmos 2082 Rocket 2.5 20:35:55 10° SSW 20:41:37 75° WNW 20:47:21 10° NNE
Spot 2 Rocket 4.2 20:38:13 12° SE 20:42:32 39° ENE 20:47:14 10° N
IRIDIUM 103 4.5 20:40:58 10° N 20:46:13 80° W 20:51:25 10° S
SPOT 5 2.6 20:42:50 10° SSE 20:47:08 89° ENE 20:51:31 10° NNW
Cosmos 1933 Rocket 3.7 20:43:00 10° N 20:47:24 61° E 20:51:18 13° SSE
Cosmos 1470 2.6 20:44:18 10° N 20:47:59 68° E 20:51:09 13° SSE
Cosmos 1908 3.2 20:51:38 10° N 20:55:10 54° E 20:57:41 18° SSE
Cosmos 1674 3.4 20:55:26 10° SSW 20:58:47 47° WNW 21:02:08 10° N
IRS-1C Rocket 4.1 20:54:03 11° SSE 20:59:09 85° WSW 21:04:27 10° NNW
ATLAS 2AS CENTAUR R/B 4.1 20:55:27 10° NNW 21:01:21 29° NE 21:07:04 10° E
KORONAS-FOTON 4.4 21:01:44 10° SSW 21:05:22 55° W 21:09:04 10° N
Ariane Rocket 3.2 21:03:06 17° SSE 21:06:58 61° ENE 21:12:00 10° N
Cosmos 468 Rocket 4.0 21:02:45 10° NNW 21:08:00 87° ENE 21:11:55 18° SSE
Cosmos 1842 4.2 21:05:24 10° SSW 21:08:54 44° WNW 21:12:25 10° N
COSMOS 2406 4.1 21:09:19 10° SW 21:14:55 52° WNW 21:20:32 10° NNE
SPOT 3 Rocket 3.6 21:12:14 19° SSE 21:15:55 68° ENE 21:21:03 10° N
Meteor 1-13 Rocket 4.3 21:11:41 10° S 21:17:32 89° E 21:23:17 10° N
Cosmos 1707 Rocket 4.5 21:16:09 22° SE 21:18:07 31° E 21:22:03 10° NNE
SL-27 R/B 4.2 21:19:33 13° ENE 21:19:33 13° ENE 21:20:16 10° ENE
Cosmos 1553 Rocket 4.5 21:16:10 10° NNW 21:22:13 60° W 21:28:20 10° S
Cosmos 1980 Rocket 3.6 21:18:42 10° NW 21:23:37 31° WSW 21:28:29 10° SSW
Cosmos 2322 Rocket 3.0 21:18:30 10° NNW 21:23:53 42° ENE 21:27:28 20° ESE
S3M 4.0 21:18:04 10° N 21:24:29 78° E 21:29:06 20° SSE
Spot 1 4.5 21:21:26 10° NNE 21:25:49 50° E 21:28:33 23° SSE
Cosmos 1655 Rocket 4.2 21:22:56 18° SSE 21:27:47 60° E 21:34:03 10° NNE
SJ 16-02 2.7 21:28:53 20° ESE 21:29:20 20° E 21:32:31 10° NE
Cosmos 2278 3.7 21:27:09 10° NNW 21:32:53 85° WSW 21:36:25 24° SSE
Landsat 5 3.6 21:29:17 10° NNE 21:33:12 53° E 21:35:02 29° SSE
Landsat 4 3.6 21:32:54 29° S 21:34:31 68° WSW 21:37:57 10° NNW
Cosmos 1741 Rocket 4.2 21:31:50 21° S 21:35:10 53° ESE 21:40:19 10° NNE
USA 245 4.1 21:34:18 19° SSW 21:36:12 38° W 21:39:51 10° NNW
USA 281 4.2 21:32:45 15° ESE 21:37:24 35° NE 21:43:15 10° N
Tiangong -1.4 21:34:28 10° W 21:37:24 35° SSW 21:37:28 35° SSW
Cosmos 2266 Rocket 4.1 21:31:15 10° S 21:37:28 82° W 21:43:54 10° N
Cosmos 1400 Rocket 2.7 21:35:14 20° SSW 21:37:51 81° WNW 21:41:44 10° N
Cosmos 540 Rocket 4.2 21:33:02 10° NNW 21:37:57 45° WSW 21:41:30 18° S
MetOp-A 4.2 21:37:25 27° SE 21:40:11 60° ENE 21:45:22 10° N
Okean 3 4.2 21:39:26 29° ESE 21:40:27 34° E 21:44:13 10° NNE
Terra 2.4 21:37:48 18° S 21:41:07 50° W 21:45:43 10° NNW
Cosmos 1733 Rocket 3.4 21:38:16 10° N 21:42:35 50° ENE 21:44:16 32° SE
Cosmos 968 Rocket 3.8 21:41:01 28° SSE 21:43:14 44° ESE 21:48:09 10° NNE
Cosmos 2237 4.3 21:39:00 10° NNW 21:44:45 78° WSW 21:47:58 27° SSE
SL-4 R/B 4.2 21:43:02 10° WNW 21:46:18 25° N 21:49:44 10° NE
Cosmos 2228 Rocket 3.1 21:44:42 28° S 21:47:05 75° E 21:51:39 10° NNE
Cosmos 1315 Rocket 4.0 21:51:04 25° E 21:51:18 25° E 21:54:34 10° NE
Cosmos 2219 Rocket 3.5 21:47:32 10° N 21:52:28 30° NE 21:55:47 17° ESE
ATLAS CENTAUR R/B 0.9 21:52:14 51° SSE 21:52:38 55° ESE 21:56:07 10° NE
SeaSat 1 3.8 21:51:57 17° SSW 21:54:57 30° WSW 21:59:16 10° NW
Meteor 2-10 Rocket 3.7 21:52:04 10° NNW 21:57:41 78° W 22:00:34 29° S
Cosmos 1953 3.6 21:57:06 10° NNE 22:00:18 24° ENE 22:00:51 24° E
H-2A R/B 4.4 21:59:30 16° E 22:00:56 19° ENE 22:03:57 10° NNE
Cosmos 1455 3.6 22:00:44 10° NNE 22:03:30 21° ENE 22:03:41 21° E
Okean 1-7 3.6 22:04:58 37° ESE 22:05:41 40° E 22:09:46 10° NNE
USA 234 4.4 22:01:18 10° NE 22:07:25 44° NNW 22:13:31 10° W
BREEZE-M DEB (TANK) 2.6 22:06:12 10° NW 22:08:20 59° NNE 22:09:08 40° E
CZ-2C R/B 4.0 22:06:35 10° NNE 22:10:50 46° E 22:11:36 42° SE
Cosmos 2315 Rocket 4.3 22:09:12 10° NNW 22:15:30 64° W 22:19:12 26° SSW
Cosmos 2360 Rocket 2.2 22:10:05 10° NNW 22:15:48 81° ENE 22:18:06 38° SSE
Cosmos 841 Rocket 4.2 22:13:28 10° NNW 22:18:30 47° WSW 22:20:45 29° SSW
SL-14 R/B 4.3 22:17:26 24° SW 22:19:13 39° WNW 22:22:48 10° N
RESURS DK-1 2.6 22:16:24 10° NNW 22:20:24 58° WSW 22:21:10 48° SSW
Cosmos 2333 Rocket 2.2 22:15:04 10° NNW 22:20:50 81° ENE 22:23:08 38° SSE
SL-16 R/B 2.9 22:18:02 10° NW 22:23:22 43° WSW 22:25:47 28° SSW
Atlas Centaur 2 3.7 22:17:49 10° WSW 22:24:51 31° S 22:25:49 30° S
Cosmos 1300 3.7 22:22:54 10° NNW 22:26:10 34° W 22:26:54 31° WSW
SL-08 R/B 4.5 22:25:46 37° SSE 22:28:09 64° E 22:34:11 10° NNE
Aureole 3 3.7 22:30:50 42° SW 22:31:49 57° WNW 22:36:10 10° N
Cosmos 1703 Rocket 3.8 22:32:44 50° ESE 22:33:17 53° E 22:37:39 10° NNE
Cosmos 1833 4.2 22:30:08 25° SSW 22:33:29 82° WNW 22:39:09 10° NNE
Cosmos 1862 Rocket 4.4 22:32:47 27° SW 22:34:45 45° WNW 22:39:00 10° N
Cosmos 1346 Rocket 3.7 22:32:15 10° NNW 22:35:50 37° W 22:36:35 33° WSW
Meteor 1-4 Rocket 3.1 22:41:49 43° NW 22:41:49 43° NW 22:44:24 10° N
Cosmos 1932 4.4 22:38:31 26° SSW 22:42:18 83° ESE 22:48:37 10° NE
Cosmos 839 Rocket 4.0 22:38:20 10° NNW 22:45:13 82° ENE 22:47:42 39° SE
Meteor 1-16 Rocket 4.5 22:39:30 10° NNW 22:45:24 69° W 22:47:38 39° SSW
BlueWalker 3 4.4 22:50:03 12° ENE 22:50:03 12° ENE 22:50:19 10° ENE
Cosmos 2322 4.4 22:41:45 10° NNW 22:47:12 45° ENE 22:49:30 30° ESE
Cosmos 2237 Rocket 4.4 22:44:10 10° N 22:47:54 18° NE 22:51:38 10° E
SL-27 R/B 4.3 22:50:57 18° WNW 22:51:23 18° WNW 22:53:25 10° NNW
ATLAS 2AS CENTAUR R/B 2.6 22:46:07 10° NW 22:52:53 74° WSW 22:55:16 42° SSE
Cosmos 2333 4.2 22:47:23 10° NNW 22:53:09 74° WSW 22:54:50 47° S
ARIANE 5 R/B 2.6 22:54:59 59° SW 22:55:32 67° WSW 22:59:52 10° NNW
Okean 2 4.0 23:00:22 41° WSW 23:01:02 46° WNW 23:04:54 10° N
PSLV R/B 4.0 22:58:24 10° N 23:02:22 63° WNW 23:02:50 57° WSW
Cosmos 1745 Rocket 4.0 23:05:11 45° S 23:07:17 79° E 23:13:40 10° N
SJ 16-02 2.6 23:05:35 25° WSW 23:07:24 36° WNW 23:11:25 10° N
Cosmos 2322 Rocket 3.4 23:02:52 10° NW 23:07:43 30° WSW 23:09:15 26° SW
Cosmos 1570 Rocket 4.1 23:02:42 10° NNW 23:08:03 68° ENE 23:09:22 49° SE
COSMOS 2455 3.3 23:08:59 40° SE 23:09:37 41° ESE 23:15:13 10° NE
Cosmos 2297 Rocket 3.3 23:13:10 28° ESE 23:13:23 28° ESE 23:18:06 10° NE
Nadezhda 1 Rocket 3.9 23:13:27 10° N 23:19:47 81° W 23:21:42 47° S
Cosmos 1408 3.8 23:22:14 31° NNE 23:22:14 31° NNE 23:23:58 10° NNE
GP-B 3.8 23:17:09 10° NNW 23:21:19 43° W 23:22:05 39° WSW
USA 281 3.6 23:19:37 37° SSW 23:21:40 49° WSW 23:28:03 10° NW
SL-4 R/B 4.0 23:22:24 10° NW 23:25:58 28° NNE 23:29:41 10° ENE
COSMOS 2428 2.8 23:20:55 10° NNW 23:26:38 73° ENE 23:28:13 48° SE
ATLAS CENTAUR R/B 3.9 23:28:32 10° WNW 23:30:37 15° NW 23:32:44 10° N
GEOS 3 Rocket 3.9 23:26:28 10° NE 23:31:27 47° ESE 23:31:28 47° ESE
Cosmos 1782 Rocket 3.7 23:29:53 10° NNW 23:34:10 60° W 23:34:15 60° WSW
Cosmos 1242 Rocket 4.5 23:35:32 18° NW 23:35:32 18° NW 23:36:53 10° NNW
CZ-3 Stage 3 4.0 23:10:47 10° W 23:35:00 38° SSW 23:37:06 35° S
H-2A R/B 3.2 23:35:29 43° WSW 23:35:32 43° W 23:39:39 10° NNW
Cosmos 1953 4.0 23:33:01 10° NW 23:35:58 22° W 23:35:58 22° W
Spot 2 4.4 23:35:40 63° SSW 23:36:25 77° WSW 23:41:31 10° NNW
Cosmos 2219 Rocket 2.7 23:31:11 10° NW 23:36:34 45° WSW 23:37:28 41° SW
Cosmos 1455 4.0 23:35:09 10° NW 23:37:24 20° W 23:37:24 20° W
Cosmos 2208 Rocket 3.8 23:33:33 10° NNW 23:38:47 87° WSW 23:39:34 65° SSE
Cosmos 371 Rocket 3.2 23:39:00 63° ESE 23:39:11 64° ESE 23:43:57 10° NNE
Cosmos 158 Rocket 3.9 23:35:57 10° NNW 23:41:17 89° WSW 23:42:08 64° SSE
Spot 4 4.3 23:42:36 46° WSW 23:43:01 47° W 23:47:40 10° NNW
Cosmos 836 Rocket 4.4 23:38:27 10° NNW 23:43:41 85° ENE 23:44:34 62° SSE
Cosmos 773 Rocket 4.3 23:43:32 10° NNW 23:48:36 57° ENE 23:49:51 45° ESE
ALOS 2 2.9 23:49:16 54° WSW 23:49:18 54° W 23:53:37 10° NNW
Cosmos 2151 Rocket 4.4 23:45:29 10° N 23:49:37 38° ENE 23:50:04 37° E
Cosmos 1503 Rocket 4.0 23:51:55 58° SE 23:52:35 64° ESE 23:57:51 10° NNE
